Date,TemperatureHighF,TemperatureAvgF,TemperatureLowF,DewpointHighF,DewpointAvgF,DewpointLowF,HumidityHigh,HumidityAvg,HumidityLow,PressureMaxIn,PressureMinIn,WindSpeedMaxMPH,WindSpeedAvgMPH,GustSpeedMaxMPH,PrecipitationSumIn
2013-1-1,24.0,8.2,-4.0,10.0,1.6,-8.0,82,74,47,0.00,40.00,16,3,19,0.00
2013-1-2,24.0,3.8,-6.0,15.0,-1.7,-11.0,86,77,54,0.00,40.00,6,1,7,0.00
2013-1-3,28.0,6.7,-10.0,3.0,-4.3,-16.0,80,63,30,0.00,40.00,5,1,6,0.00
2013-1-4,33.0,7.4,-10.0,5.0,-5.2,-16.0,75,59,26,0.00,40.00,14,2,19,0.00
2013-1-5,38.0,10.9,-8.0,8.0,-1.0,-13.0,79,61,25,0.00,40.00,5,1,5,0.00
2013-1-6,36.0,18.0,1.0,11.0,4.1,-4.0,80,56,29,0.00,40.00,8,2,14,0.00
2013-1-7,36.0,17.7,-2.0,13.0,2.2,-8.0,78,54,24,0.00,40.00,23,5,27,0.00
2013-1-8,35.0,30.8,26.0,26.0,23.4,19.0,79,73,67,0.00,40.00,16,8,22,0.00
2013-1-9,42.0,26.6,9.0,22.0,15.4,6.0,88,65,36,0.00,40.00,30,11,36,0.00
2013-1-10,38.0,29.6,16.0,27.0,17.3,10.0,92,63,35,0.00,40.00,29,21,47,0.00
2013-1-11,16.0,12.7,9.0,10.0,6.0,3.0,84,74,59,0.00,40.00,22,13,28,0.00
2013-1-12,11.0,4.4,-4.0,6.0,-2.5,-12.0,82,72,52,0.00,40.00,22,8,25,0.00
2013-1-13,15.0,-3.1,-17.0,0.0,-10.1,-24.0,78,71,49,0.00,40.00,13,3,14,0.00
2013-1-14,8.0,-6.5,-22.0,-2.0,-13.9,-29.0,77,69,55,0.00,40.00,16,4,18,0.00
2013-1-15,17.0,9.3,1.0,8.0,1.4,-6.0,76,69,58,0.00,40.00,15,5,20,0.00
2013-1-16,29.0,12.5,2.0,13.0,6.0,-3.0,85,75,50,0.00,40.00,10,2,11,0.00
2013-1-17,34.0,11.0,-4.0,22.0,4.2,-9.0,85,74,44,0.00,40.00,4,1,5,0.00
2013-1-18,40.0,15.6,-4.0,15.0,5.4,-9.0,84,66,34,0.00,40.00,6,1,6,0.00
2013-1-19,43.0,16.0,-2.0,14.0,5.0,-7.0,84,64,30,0.00,40.00,8,2,8,0.00
2013-1-20,41.0,15.0,-4.0,11.0,3.0,-9.0,83,62,28,0.00,40.00,6,2,7,0.00
2013-1-21,44.0,18.0,0.0,16.0,5.2,-6.0,78,60,27,0.00,40.00,8,1,8,0.00
2013-1-22,46.0,19.2,0.0,12.0,5.3,-5.0,80,59,22,0.00,40.00,4,1,5,0.00
2013-1-23,47.0,24.9,7.0,18.0,9.8,-1.0,74,55,23,0.00,40.00,6,2,13,0.00
2013-1-24,38.0,34.3,20.0,34.0,29.4,13.0,90,82,56,0.00,40.00,5,2,10,0.00
2013-1-25,39.0,34.6,32.0,34.0,31.2,29.0,91,87,74,0.00,40.00,11,3,15,0.00
2013-1-26,42.0,34.3,23.0,31.0,28.7,21.0,92,80,61,0.00,40.00,11,4,14,0.00
2013-1-27,40.0,30.5,22.0,32.0,26.9,17.0,91,86,65,0.00,40.00,28,9,32,0.00
2013-1-28,23.0,17.4,10.0,18.0,11.2,4.0,84,76,58,0.00,40.00,22,9,26,0.00
2013-1-29,25.0,16.9,7.0,16.0,10.0,2.0,85,74,57,0.00,40.00,22,8,25,0.00
2013-1-30,32.0,25.6,19.0,26.0,20.5,13.0,86,80,72,0.00,40.00,34,15,39,0.00
2013-1-31,33.0,31.6,30.0,23.0,21.7,20.0,74,66,58,0.00,40.00,25,14,28,0.00
2013-2-1,37.0,28.9,17.0,26.0,20.2,12.0,86,70,53,0.00,40.00,27,8,29,0.00
2013-2-2,45.0,22.7,8.0,19.0,12.6,4.0,86,67,27,0.00,40.00,5,2,10,0.00
2013-2-3,42.0,25.0,16.0,18.0,12.9,8.0,84,63,26,0.00,40.00,21,4,23,0.00
2013-2-4,40.0,23.0,7.0,16.0,10.3,2.0,81,60,33,0.00,40.00,18,5,22,0.00
2013-2-5,47.0,29.0,14.0,24.0,15.3,9.0,79,58,25,0.00,40.00,11,2,13,0.00
2013-2-6,38.0,29.7,16.0,20.0,16.3,9.0,78,58,37,0.00,40.00,21,6,23,0.00
2013-2-7,40.0,23.3,5.0,14.0,8.2,0.0,84,57,23,0.00,40.00,24,9,27,0.00
2013-2-8,37.0,29.4,23.0,27.0,18.5,12.0,88,64,44,0.00,40.00,22,10,25,0.00
2013-2-9,27.0,22.4,20.0,20.0,17.8,14.0,89,82,65,0.00,40.00,27,8,28,0.00
2013-2-10,25.0,18.9,12.0,16.0,12.9,8.0,86,77,60,0.00,40.00,17,6,17,0.00
2013-2-11,26.0,13.0,2.0,11.0,5.7,-2.0,85,73,52,0.00,40.00,16,4,18,0.00
2013-2-12,25.0,15.7,0.0,16.0,8.4,-4.0,80,72,60,0.00,40.00,20,6,22,0.00
2013-2-13,32.0,25.8,16.0,21.0,18.2,12.0,85,72,58,0.00,40.00,22,8,25,0.00
2013-2-14,33.0,28.4,19.0,23.0,18.7,12.0,80,67,48,0.00,40.00,20,10,22,0.00
2013-2-15,35.0,25.3,18.0,22.0,16.4,12.0,81,69,50,0.00,40.00,18,5,22,0.00
2013-2-16,44.0,24.7,10.0,19.0,12.6,6.0,84,64,27,0.00,40.00,12,3,13,0.00
2013-2-17,35.0,24.1,13.0,20.0,13.8,7.0,82,64,48,0.00,40.00,25,10,34,0.00
2013-2-18,31.0,19.2,4.0,12.0,6.0,0.0,81,58,33,0.00,40.00,14,5,18,0.00
2013-2-19,40.0,31.2,24.0,12.0,6.0,1.0,43,34,24,0.00,40.00,28,15,35,0.00
2013-2-20,37.0,28.7,24.0,23.0,16.6,7.0,85,61,39,0.00,40.00,21,8,23,0.00
2013-2-21,26.0,22.0,16.0,21.0,14.3,8.0,85,72,58,0.00,40.00,21,11,27,0.00
2013-2-22,25.0,18.4,12.0,15.0,10.8,6.0,84,72,56,0.00,40.00,21,7,27,0.00
2013-2-23,25.0,19.7,17.0,21.0,14.0,10.0,89,78,66,0.00,40.00,36,14,38,0.00
2013-2-24,26.0,18.6,5.0,13.0,10.3,0.0,82,69,50,0.00,40.00,20,12,23,0.00
2013-2-25,31.0,14.8,-3.0,15.0,4.1,-8.0,82,64,38,0.00,40.00,19,6,22,0.00
2013-2-26,24.0,18.7,7.0,16.0,11.8,1.0,86,74,58,0.00,40.00,22,13,25,0.00
2013-2-27,27.0,11.4,-3.0,10.0,1.6,-8.0,83,66,41,0.00,40.00,16,3,19,0.00
2013-2-28,35.0,20.7,2.0,18.0,7.6,-4.0,79,58,34,0.00,40.00,17,4,20,0.00
2013-3-1,42.0,34.5,24.0,29.0,23.7,15.0,82,64,50,0.00,40.00,25,8,25,0.00
2013-3-2,48.0,31.9,18.0,27.0,21.7,14.0,87,68,34,0.00,40.00,15,2,16,0.00
2013-3-3,37.0,32.9,25.0,33.0,28.7,21.0,89,84,71,0.00,40.00,18,6,20,0.00
2013-3-4,35.0,26.2,14.0,30.0,12.8,1.0,87,58,27,0.00,40.00,22,10,24,0.00
2013-3-5,47.0,27.4,8.0,14.0,7.8,1.0,82,50,15,0.00,40.00,20,6,26,0.00
2013-3-6,51.0,40.2,32.0,31.0,16.4,9.0,86,39,25,0.00,40.00,26,14,32,0.00
2013-3-7,46.0,35.3,30.0,30.0,26.1,19.0,85,70,34,0.00,40.00,20,6,20,0.00
2013-3-8,42.0,34.6,29.0,31.0,28.2,25.0,90,78,52,0.00,40.00,12,4,14,0.00
2013-3-9,38.0,31.8,27.0,30.0,22.8,10.0,90,71,41,0.00,40.00,21,10,25,0.00
2013-3-10,28.0,23.5,19.0,13.0,12.5,11.0,74,63,49,0.00,40.00,6,3,13,0.00
2013-3-11,43.0,34.2,22.0,26.0,20.4,13.0,78,58,35,0.00,40.00,27,11,32,0.00
2013-3-12,47.0,39.7,30.0,31.0,27.4,24.0,79,62,44,0.00,40.00,23,8,24,0.00
2013-3-13,57.0,39.6,25.0,30.0,24.1,20.0,84,59,24,0.00,40.00,10,3,12,0.00
2013-3-14,65.0,44.5,26.0,29.0,22.5,13.0,80,49,13,0.00,40.00,14,4,19,0.00
2013-3-15,59.0,48.5,35.0,30.0,20.6,11.0,68,38,14,0.00,40.00,19,7,24,0.00
2013-3-16,49.0,38.2,27.0,27.0,20.1,9.0,78,51,20,0.00,40.00,23,8,28,0.00
2013-3-17,38.0,32.7,25.0,30.0,20.6,11.0,89,61,45,0.00,40.00,28,15,38,0.00
2013-3-18,40.0,31.6,24.0,20.0,13.9,10.0,80,49,30,0.00,40.00,34,12,39,0.00
2013-3-19,46.0,33.0,19.0,17.0,5.3,-14.0,71,38,7,0.00,40.00,14,4,18,0.00
2013-3-20,42.0,36.6,26.0,35.0,21.8,1.0,88,59,22,0.00,40.00,19,9,23,0.00
2013-3-21,41.0,29.5,20.0,32.0,20.6,6.0,91,70,35,0.00,40.00,34,15,45,0.00
2013-3-22,24.0,20.6,17.0,19.0,12.6,4.0,88,71,45,0.00,40.00,29,8,40,0.00
2013-3-23,24.0,17.6,7.0,17.0,10.6,2.0,86,74,54,0.00,40.00,23,9,24,0.00
2013-3-24,28.0,15.4,3.0,16.0,7.0,-2.0,82,70,47,0.00,40.00,14,4,19,0.00
2013-3-25,41.0,25.2,8.0,23.0,10.8,2.0,80,57,31,0.00,40.00,14,4,16,0.00
2013-3-26,51.0,38.3,30.0,30.0,19.4,14.0,83,49,22,0.00,40.00,27,7,33,0.00
2013-3-27,57.0,38.8,22.0,29.0,21.7,12.0,86,57,17,0.00,40.00,20,3,23,0.00
2013-3-28,59.0,43.1,27.0,27.0,22.6,14.0,78,49,16,0.00,40.00,17,5,22,0.00
2013-3-29,56.0,44.5,33.0,31.0,26.1,21.0,79,51,25,0.00,40.00,22,7,27,0.00
2013-3-30,57.0,42.0,26.0,28.0,22.6,-99.9,80,52,23,0.00,40.00,22,6,27,0.00
2013-3-31,60.0,42.4,22.0,26.0,18.1,2.0,82,46,10,0.00,40.00,20,5,27,0.00
2013-4-1,48.0,40.6,32.0,37.0,32.5,23.0,90,73,41,0.00,40.00,18,5,36,0.00
2013-4-2,53.0,38.9,32.0,34.0,30.5,26.0,91,74,39,0.00,40.00,17,3,20,0.00
2013-4-3,57.0,42.4,28.0,35.0,27.2,20.0,87,59,25,0.00,40.00,18,5,22,0.00
2013-4-4,62.0,46.3,28.0,31.0,24.4,15.0,79,47,17,0.00,40.00,20,6,24,0.00
2013-4-5,54.0,44.5,32.0,38.0,29.2,21.0,88,58,28,0.00,40.00,21,10,30,0.00
2013-4-6,50.0,38.3,27.0,35.0,26.5,21.0,82,64,31,0.00,40.00,25,5,27,0.00
2013-4-7,53.0,41.2,28.0,32.0,26.2,19.0,86,58,28,0.00,40.00,24,7,33,0.00
2013-4-8,49.0,36.0,24.0,33.0,27.0,15.0,91,73,24,0.00,40.00,21,8,30,0.00
2013-4-9,26.0,20.8,16.0,19.0,10.4,6.0,84,64,44,0.00,40.00,24,13,32,0.00
2013-4-10,42.0,28.3,11.0,26.0,15.7,6.0,82,60,36,0.00,40.00,20,6,30,0.00
2013-4-11,46.0,38.4,32.0,33.0,28.6,24.0,90,69,45,0.00,40.00,22,10,23,0.00
2013-4-12,51.0,38.6,24.0,29.0,22.6,14.0,85,57,24,0.00,40.00,23,7,28,0.00
2013-4-13,49.0,37.8,31.0,35.0,26.6,15.0,88,65,29,0.00,40.00,29,9,37,0.00
2013-4-14,38.0,29.9,21.0,21.0,8.0,-1.0,80,40,22,0.00,40.00,23,12,29,0.00
2013-4-15,39.0,30.9,25.0,29.0,23.2,16.0,91,74,40,0.00,40.00,21,6,23,0.00
2013-4-16,32.0,28.1,25.0,25.0,18.7,11.0,89,68,45,0.00,40.00,21,8,24,0.00
2013-4-17,33.0,25.0,18.0,22.0,11.5,5.0,82,56,31,0.00,40.00,28,10,35,0.00
2013-4-18,38.0,28.3,17.0,13.0,5.7,-5.0,62,39,17,0.00,40.00,22,10,30,0.00
2013-4-19,45.0,33.0,20.0,32.0,20.5,12.0,85,60,37,0.00,40.00,23,7,26,0.00
2013-4-20,45.0,37.0,32.0,34.0,30.2,25.0,91,77,47,0.00,40.00,27,11,30,0.00
2013-4-21,53.0,39.6,23.0,30.0,22.3,18.0,86,55,26,0.00,40.00,22,7,31,0.00
2013-4-22,43.0,37.9,29.0,32.0,22.4,8.0,83,55,25,0.00,40.00,24,12,31,0.00
2013-4-23,42.0,31.5,19.0,20.0,10.4,-8.0,79,46,11,0.00,40.00,19,8,23,0.00
2013-4-24,53.0,37.8,21.0,19.0,9.4,-4.0,70,36,9,0.00,40.00,15,4,18,0.00
2013-4-25,55.0,38.4,20.0,21.0,10.7,-8.0,74,39,8,0.00,40.00,26,8,31,0.00
2013-4-26,60.0,44.0,22.0,17.0,10.8,4.0,63,29,12,0.00,40.00,18,6,24,0.00
2013-4-27,63.0,47.2,24.0,23.0,16.6,11.0,67,34,12,0.00,40.00,22,7,27,0.00
2013-4-28,66.0,50.8,31.0,28.0,22.2,17.0,68,37,16,0.00,40.00,24,8,34,0.00
2013-4-29,64.0,49.7,30.0,30.0,24.0,18.0,72,40,21,0.00,40.00,23,10,31,0.00
2013-4-30,49.0,44.6,34.0,29.0,12.8,-5.0,54,29,13,0.00,40.00,31,14,37,0.00
2013-5-1,41.0,32.4,22.0,21.0,9.3,-3.0,68,39,20,0.00,40.00,32,13,35,0.00
2013-5-2,55.0,36.8,16.0,19.0,9.4,-2.0,73,39,9,0.00,40.00,18,6,23,0.00
2013-5-3,61.0,44.0,24.0,20.0,11.5,-6.0,67,34,6,0.00,40.00,21,6,27,0.00
2013-5-4,62.0,45.7,24.0,29.0,16.6,10.0,68,34,13,0.00,40.00,19,5,29,0.00
2013-5-5,65.0,50.3,35.0,30.0,25.8,17.0,69,41,15,0.00,40.00,26,7,32,0.00
2013-5-6,60.0,48.5,38.0,38.0,30.7,21.0,73,52,22,0.00,40.00,19,7,26,0.00
2013-5-7,57.0,46.0,35.0,38.0,32.7,23.0,88,63,27,0.00,40.00,20,8,28,0.00
2013-5-8,57.0,43.1,31.0,42.0,34.8,27.0,89,74,36,0.00,40.00,22,5,27,0.00
2013-5-9,65.0,48.4,31.0,42.0,29.2,16.0,93,57,15,0.00,40.00,26,8,32,0.00
2013-5-10,69.0,51.3,33.0,35.0,27.3,-99.9,77,46,14,0.00,40.00,16,4,27,0.00
2013-5-11,70.0,53.0,31.0,34.0,24.8,-99.9,82,41,14,0.00,40.00,19,6,24,0.00
2013-5-12,74.0,56.6,36.0,32.0,26.2,21.0,65,36,14,0.00,40.00,18,6,25,0.00
2013-5-13,80.0,61.1,40.0,35.0,28.5,22.0,67,35,11,0.00,40.00,14,4,20,0.00
2013-5-14,77.0,62.2,42.0,35.0,29.6,22.0,64,33,12,0.00,40.00,19,6,25,0.00
2013-5-15,76.0,60.8,44.0,36.0,31.2,19.0,63,36,11,0.00,40.00,29,8,32,0.00
2013-5-16,71.0,56.2,46.0,39.0,19.2,-99.9,70,39,15,0.00,40.00,29,10,36,0.00
2013-5-17,60.0,50.1,42.0,42.0,32.6,-99.9,85,59,27,0.00,40.00,30,7,37,0.00
2013-5-18,51.0,43.8,39.0,42.0,36.2,28.0,88,75,40,0.00,40.00,19,7,22,0.00
2013-5-19,53.0,42.8,34.0,38.0,34.1,30.0,88,72,40,0.00,40.00,27,9,32,0.00
2013-5-20,55.0,45.9,40.0,42.0,37.6,33.0,86,73,54,0.00,40.00,19,9,24,0.00
2013-5-21,66.0,50.4,33.0,40.0,29.1,17.0,89,52,15,0.00,40.00,17,5,19,0.00
2013-5-22,73.0,59.4,46.0,37.0,25.1,16.0,56,30,11,0.00,40.00,32,17,36,0.00
2013-5-23,69.0,50.3,31.0,33.0,25.2,15.0,75,43,12,0.00,40.00,34,12,42,0.00
2013-5-24,68.0,50.5,29.0,28.0,18.5,0.0,72,35,6,0.00,40.00,19,6,24,0.00
2013-5-25,71.0,56.2,35.0,28.0,19.2,11.0,64,29,9,0.00,40.00,33,10,38,0.00
2013-5-26,72.0,60.6,40.0,24.0,14.4,6.0,48,18,7,0.00,40.00,35,12,37,0.00
2013-5-27,66.0,54.8,40.0,33.0,28.1,15.0,63,37,14,0.00,40.00,25,11,32,0.00
2013-5-28,55.0,46.2,40.0,40.0,34.7,25.0,87,65,34,0.00,40.00,34,10,36,0.00
2013-5-29,54.0,45.2,39.0,37.0,33.3,22.0,88,66,32,0.00,40.00,22,9,27,0.00
2013-5-30,56.0,44.5,32.0,38.0,30.5,24.0,90,62,32,0.00,40.00,27,10,31,0.00
2013-5-31,57.0,45.6,30.0,30.0,22.3,16.0,83,44,21,0.00,40.00,27,11,30,0.00
2013-6-1,67.0,50.3,27.0,35.0,23.8,14.0,78,41,14,0.00,40.00,17,5,20,0.00
2013-6-2,80.0,60.7,35.0,35.0,24.5,14.0,78,35,8,0.00,40.00,26,8,34,0.00
2013-6-3,66.0,58.0,41.0,26.0,18.1,10.0,43,22,11,0.00,40.00,23,14,29,0.00
2013-6-4,68.0,52.4,31.0,32.0,23.9,19.0,65,37,16,0.00,40.00,25,8,30,0.00
2013-6-5,70.0,54.6,35.0,33.0,28.3,18.0,77,41,15,0.00,40.00,24,6,25,0.00
2013-6-6,74.0,57.3,35.0,35.0,29.7,23.0,74,40,15,0.00,40.00,21,6,24,0.00
2013-6-7,77.0,60.3,40.0,39.0,33.2,27.0,72,41,16,0.00,40.00,22,7,32,0.00
2013-6-8,75.0,62.0,45.0,42.0,33.2,22.0,70,38,16,0.00,40.00,23,9,26,0.00
2013-6-9,84.0,63.7,39.0,43.0,32.4,23.0,71,38,14,0.00,40.00,19,6,23,0.00
2013-6-10,86.0,70.7,51.0,42.0,26.7,8.0,61,24,6,0.00,40.00,25,9,34,0.00
2013-6-11,77.0,64.3,51.0,36.0,22.0,11.0,48,22,9,0.00,40.00,24,8,34,0.00
2013-6-12,80.0,62.8,41.0,34.0,27.6,17.0,63,31,9,0.00,40.00,22,7,34,0.00
2013-6-13,80.0,71.4,54.0,36.0,26.0,13.0,44,20,7,0.00,40.00,36,15,42,0.00
2013-6-14,66.0,52.3,33.0,34.0,29.5,26.0,77,44,24,0.00,40.00,20,8,25,0.00
2013-6-15,78.0,54.1,32.0,34.0,26.3,9.0,73,40,7,0.00,40.00,22,5,29,0.00
2013-6-16,80.0,60.0,35.0,31.0,22.8,8.0,64,31,6,0.00,40.00,25,6,31,0.00
2013-6-17,81.0,60.2,35.0,27.0,21.3,8.0,59,28,6,0.00,40.00,18,4,22,0.00
2013-6-18,83.0,62.9,37.0,27.0,19.4,10.0,57,24,6,0.00,40.00,25,7,35,0.00
2013-6-19,73.0,60.7,41.0,33.0,19.2,12.0,42,20,11,0.00,40.00,31,14,41,0.00
2013-6-20,66.0,45.1,30.0,30.0,20.8,15.0,62,40,17,0.00,40.00,21,4,26,0.00
2013-6-21,69.0,66.8,65.0,33.0,31.5,30.0,30,27,23,0.00,40.00,20,17,24,0.00
2013-6-22,65.0,59.2,38.0,33.0,28.3,25.0,68,31,24,0.00,40.00,25,16,30,0.00
2013-6-23,77.0,56.2,32.0,30.0,24.0,16.0,69,36,9,0.00,40.00,20,7,29,0.00
2013-6-24,75.0,65.2,50.0,41.0,27.6,21.0,59,26,14,0.00,40.00,27,12,43,0.00
2013-6-25,77.0,58.7,43.0,42.0,38.5,34.0,81,51,21,0.00,40.00,13,3,19,0.00
2013-6-26,83.0,72.0,51.0,44.0,40.3,36.0,59,33,19,0.00,40.00,18,7,22,0.00
2013-6-27,89.0,69.1,47.0,46.0,40.6,35.0,73,41,15,0.00,40.00,17,4,30,0.00
2013-6-28,92.0,74.3,50.0,44.0,37.3,27.0,69,31,10,0.00,40.00,16,5,22,0.00
2013-6-29,90.0,73.4,49.0,43.0,37.6,31.0,62,31,12,0.00,40.00,16,5,26,0.00
2013-6-30,89.0,75.3,58.0,44.0,36.7,27.0,54,27,11,0.00,40.00,19,6,24,0.00
2013-7-1,91.0,74.2,49.0,40.0,34.9,27.0,59,27,10,0.00,40.00,15,6,21,0.00
2013-7-2,90.0,73.0,51.0,45.0,36.9,26.0,61,30,10,0.00,40.00,18,4,25,0.00
2013-7-3,86.0,72.3,53.0,49.0,43.3,39.0,58,37,23,0.00,40.00,20,6,21,0.00
2013-7-4,80.0,69.3,58.0,56.0,50.8,43.0,88,55,27,0.00,40.00,21,6,24,0.00
2013-7-5,81.0,67.0,55.0,56.0,50.9,43.0,90,60,26,0.00,40.00,42,8,46,0.00
2013-7-6,83.0,61.8,53.0,53.0,49.7,36.0,88,68,19,0.00,40.00,36,6,42,0.00
2013-7-7,81.0,66.2,56.0,51.0,47.5,40.0,78,53,27,0.00,40.00,24,9,33,0.00
2013-7-8,83.0,64.2,53.0,52.0,47.4,39.0,85,59,21,0.00,40.00,16,3,18,0.00
2013-7-9,88.0,69.2,50.0,50.0,40.9,23.0,85,44,10,0.00,40.00,16,4,20,0.00
2013-7-10,89.0,70.3,45.0,44.0,29.2,-99.9,75,30,6,0.00,40.00,17,4,19,0.00
2013-7-11,82.0,68.8,54.0,51.0,41.9,32.0,72,40,16,0.00,40.00,23,7,37,0.00
2013-7-12,76.0,62.7,56.0,55.0,50.9,46.0,89,68,35,0.00,40.00,11,4,13,0.00
2013-7-13,80.0,67.0,59.0,54.0,50.6,41.0,79,58,26,0.00,40.00,35,6,39,0.00
2013-7-14,84.0,65.6,48.0,53.0,45.2,28.0,89,56,13,0.00,40.00,9,3,14,0.00
2013-7-15,86.0,68.6,50.0,56.0,45.2,36.0,80,47,17,0.00,40.00,18,4,25,0.00
2013-7-16,82.0,68.5,60.0,56.0,51.4,44.0,79,57,26,0.00,40.00,17,5,23,0.00
2013-7-17,83.0,68.7,56.0,58.0,53.0,47.0,88,60,29,0.00,40.00,22,8,24,0.00
2013-7-18,87.0,72.1,52.0,54.0,46.6,34.0,86,46,16,0.00,40.00,15,5,20,0.00
2013-7-19,88.0,72.6,49.0,47.0,36.8,20.0,75,34,8,0.00,40.00,16,6,23,0.00
2013-7-20,88.0,71.0,48.0,40.0,30.7,-99.9,64,28,10,0.00,40.00,17,5,22,0.00
2013-7-21,88.0,74.8,48.0,40.0,30.6,22.0,56,23,8,0.00,40.00,19,6,22,0.00
2013-7-22,88.0,74.0,48.0,38.0,29.9,17.0,56,23,7,0.00,40.00,18,7,22,0.00
2013-7-23,88.0,72.2,48.0,35.0,30.1,17.0,53,24,7,0.00,40.00,16,5,20,0.00
2013-7-24,78.0,66.6,49.0,47.0,37.4,29.0,56,35,22,0.00,40.00,26,7,32,0.00
2013-7-25,85.0,69.3,54.0,48.0,40.4,29.0,74,41,14,0.00,40.00,21,6,24,0.00
2013-7-26,87.0,68.4,47.0,41.0,34.2,25.0,68,34,10,0.00,40.00,18,5,24,0.00
2013-7-27,71.0,62.3,53.0,55.0,44.5,32.0,79,53,33,0.00,40.00,14,4,16,0.00
2013-7-28,77.0,62.5,49.0,52.0,45.6,39.0,87,58,27,0.00,40.00,26,6,32,0.00
2013-7-29,76.0,63.1,51.0,47.0,44.6,40.0,82,54,28,0.00,40.00,20,7,22,0.00
2013-7-30,83.0,67.2,52.0,46.0,38.7,25.0,76,40,12,0.00,40.00,20,7,27,0.00
2013-7-31,87.0,70.9,50.0,43.0,31.5,21.0,59,28,9,0.00,40.00,18,6,29,0.00
2013-8-1,85.0,71.7,50.0,52.0,41.7,33.0,56,35,17,0.00,40.00,27,14,36,0.00
2013-8-2,84.0,68.2,47.0,49.0,34.3,16.0,84,37,8,0.00,40.00,25,8,31,0.00
2013-8-3,85.0,68.8,52.0,36.0,26.6,18.0,44,24,8,0.00,40.00,23,7,27,0.00
2013-8-4,85.0,71.6,52.0,39.0,31.4,25.0,48,25,12,0.00,40.00,19,6,25,0.00
2013-8-5,83.0,68.4,48.0,40.0,33.8,27.0,59,30,13,0.00,40.00,24,6,36,0.00
2013-8-6,85.0,69.7,50.0,41.0,33.2,24.0,58,30,10,0.00,40.00,23,6,29,0.00
2013-8-7,83.0,66.1,45.0,43.0,33.6,25.0,60,33,12,0.00,40.00,22,8,31,0.00
2013-8-8,80.0,61.5,45.0,47.0,39.1,28.0,71,47,15,0.00,40.00,22,4,31,0.00
2013-8-9,81.0,62.7,43.0,46.0,36.5,23.0,80,43,12,0.00,40.00,31,8,42,0.00
2013-8-10,80.0,67.6,54.0,40.0,34.1,20.0,52,31,10,0.00,40.00,26,12,30,0.00
2013-8-11,82.0,68.7,57.0,39.0,33.4,26.0,46,28,14,0.00,40.00,17,8,25,0.00
2013-8-12,75.0,65.4,49.0,40.0,34.7,26.0,62,33,15,0.00,40.00,21,9,27,0.00
2013-8-13,81.0,64.2,45.0,40.0,29.3,-99.9,71,34,10,0.00,40.00,21,4,24,0.00
2013-8-14,84.0,65.0,46.0,38.0,28.1,20.0,58,30,9,0.00,40.00,19,7,28,0.00
2013-8-15,86.0,62.5,46.0,34.0,11.5,-99.9,50,21,6,0.00,40.00,15,4,20,0.00
2013-8-16,87.0,69.2,44.0,33.0,22.5,-99.9,48,21,9,0.00,40.00,19,5,27,0.00
2013-8-17,84.0,63.7,54.0,50.0,37.5,-99.9,71,42,15,0.00,40.00,47,7,53,0.00
2013-8-18,86.0,66.6,46.0,48.0,41.1,33.0,86,48,15,0.00,40.00,18,6,22,0.00
2013-8-19,85.0,63.1,51.0,57.0,33.2,-99.9,72,44,18,0.00,40.00,27,5,32,0.00
2013-8-20,81.0,66.5,55.0,53.0,44.9,-99.9,76,51,23,0.00,40.00,17,5,21,0.00
2013-8-21,82.0,64.6,47.0,48.0,43.6,36.0,84,53,19,0.00,40.00,18,4,25,0.00
2013-8-22,80.0,63.1,50.0,49.0,43.1,39.0,71,50,24,0.00,40.00,26,6,30,0.00
2013-8-23,66.0,60.2,56.0,54.0,51.1,48.0,86,72,53,0.00,40.00,25,10,30,0.00
2013-8-24,77.0,60.0,44.0,52.0,44.3,-99.9,91,63,23,0.00,40.00,26,6,41,0.00
2013-8-25,76.0,65.0,53.0,48.0,44.5,39.0,71,49,26,0.00,40.00,20,11,23,0.00
2013-8-26,68.0,63.7,59.0,52.0,47.9,45.0,72,56,44,0.00,40.00,23,13,26,0.00
2013-8-27,71.0,62.6,55.0,52.0,49.7,48.0,78,63,44,0.00,40.00,19,8,22,0.00
2013-8-28,82.0,74.6,67.0,53.0,45.7,39.0,56,37,22,0.00,40.00,22,8,26,0.00
2013-8-29,83.0,68.0,48.0,49.0,45.1,42.0,84,48,24,0.00,40.00,18,5,21,0.00
2013-8-30,84.0,62.3,49.0,49.0,45.3,42.0,81,58,23,0.00,40.00,7,2,14,0.00
2013-9-4,82.0,69.9,60.0,51.0,48.0,45.0,66,47,29,0.00,40.00,15,5,23,0.00
2013-9-5,85.0,70.9,56.0,49.0,44.9,35.0,72,43,17,0.00,40.00,21,10,27,0.00
2013-9-6,85.0,69.1,54.0,47.0,42.8,28.0,72,43,12,0.00,40.00,24,8,29,0.00
2013-9-7,79.0,61.7,54.0,53.0,45.9,-99.9,88,61,27,0.00,40.00,25,5,30,0.00
2013-9-8,64.0,56.1,51.0,52.0,50.4,48.0,92,82,57,0.00,40.00,7,3,13,0.00
2013-9-9,73.0,57.6,45.0,49.0,44.8,37.0,91,66,27,0.00,40.00,21,4,22,0.00
2013-9-10,69.0,57.7,51.0,52.0,47.0,41.0,83,69,36,0.00,40.00,13,4,20,0.00
2013-9-11,69.0,59.7,54.0,55.0,51.0,49.0,90,73,51,0.00,40.00,25,8,31,0.00
2013-9-12,67.0,56.8,48.0,52.0,47.3,43.0,91,72,43,0.00,40.00,21,7,35,0.00
2013-9-13,61.0,54.9,49.0,53.0,49.9,46.0,90,83,70,0.00,40.00,23,6,27,0.00
2013-9-14,62.0,53.9,48.0,52.0,46.2,-99.9,93,79,58,0.00,40.00,23,5,27,0.00
2013-9-15,68.0,55.2,43.0,51.0,46.1,41.0,92,74,43,0.00,40.00,14,3,21,0.00
2013-9-16,78.0,59.6,43.0,50.0,44.2,35.0,87,62,21,0.00,40.00,16,4,25,0.00
2013-9-17,75.0,65.1,55.0,54.0,43.8,32.0,75,49,22,0.00,40.00,23,12,29,0.00
2013-9-18,69.0,61.1,42.0,37.0,33.8,25.0,55,37,26,0.00,40.00,29,15,38,0.00
2013-9-19,62.0,45.2,27.0,29.0,25.3,19.0,84,51,21,0.00,40.00,16,5,20,0.00
2013-9-20,76.0,53.0,27.0,35.0,27.2,19.0,83,45,12,0.00,40.00,20,5,26,0.00
2013-9-21,75.0,58.6,42.0,39.0,26.9,-99.9,65,35,14,0.00,40.00,23,9,31,0.00
2013-9-22,62.0,56.1,49.0,41.0,34.9,28.0,62,45,30,0.00,40.00,23,9,28,0.00
2013-9-23,59.0,50.7,38.0,33.0,31.2,28.0,73,48,31,0.00,40.00,20,11,26,0.00
2013-9-24,71.0,52.4,33.0,35.0,23.8,9.0,78,43,8,0.00,40.00,27,11,35,0.00
2013-9-25,64.0,50.6,35.0,40.0,27.6,18.0,88,50,16,0.00,40.00,28,17,38,0.00
2013-9-26,43.0,37.4,35.0,35.0,32.7,32.0,89,83,68,0.00,40.00,13,4,17,0.00
2013-9-27,40.0,35.6,28.0,33.0,29.6,24.0,90,78,59,0.00,40.00,18,9,23,0.00
2013-9-28,56.0,35.9,23.0,31.0,22.2,-99.9,88,65,21,0.00,40.00,13,4,18,0.00
2013-9-29,67.0,51.0,31.0,27.0,23.0,16.0,76,39,14,0.00,40.00,32,9,43,0.00
2013-9-30,69.0,60.3,48.0,29.0,23.6,19.0,44,25,17,0.00,40.00,27,11,35,0.00
2013-10-1,68.0,54.2,43.0,32.0,30.3,20.0,61,42,15,0.00,40.00,13,4,16,0.00
2013-10-2,67.0,48.8,34.0,40.0,31.7,26.0,80,56,21,0.00,40.00,26,6,35,0.00
2013-10-3,45.0,37.9,31.0,39.0,28.6,18.0,89,69,42,0.00,40.00,26,10,32,0.00
2013-10-4,39.0,32.1,28.0,27.0,25.4,22.0,92,77,57,0.00,40.00,18,8,18,0.00
2013-10-5,47.0,33.2,20.0,28.0,22.5,16.0,86,67,41,0.00,40.00,17,5,22,0.00
2013-10-6,64.0,40.7,23.0,30.0,24.6,19.0,84,59,23,0.00,40.00,13,2,16,0.00
2013-10-7,71.0,51.8,29.0,31.0,22.3,13.0,81,41,11,0.00,40.00,16,5,25,0.00
2013-10-8,60.0,51.2,36.0,27.0,21.6,14.0,67,32,15,0.00,40.00,21,9,24,0.00
2013-10-9,58.0,44.3,25.0,35.0,25.8,20.0,81,53,23,0.00,40.00,21,9,28,0.00
2013-10-10,46.0,40.3,37.0,37.0,34.4,32.0,86,79,60,0.00,40.00,22,9,25,0.00
2013-10-11,48.0,38.0,27.0,34.0,27.1,21.0,88,67,34,0.00,40.00,24,7,27,0.00
2013-10-12,56.0,38.0,24.0,36.0,20.0,-99.9,83,56,23,0.00,40.00,17,5,23,0.00
2013-10-13,50.0,43.4,38.0,38.0,34.4,32.0,87,71,52,0.00,40.00,24,9,26,0.00
2013-10-14,44.0,37.7,32.0,34.0,30.7,27.0,88,76,54,0.00,40.00,18,9,22,0.00
2013-10-15,42.0,33.1,27.0,28.0,23.1,18.0,89,69,39,0.00,40.00,12,4,16,0.00
2013-10-16,47.0,32.3,17.0,24.0,18.5,13.0,84,60,32,0.00,40.00,18,5,23,0.00
2013-10-17,49.0,35.6,22.0,25.0,20.2,15.0,83,57,27,0.00,40.00,23,6,26,0.00
2013-10-19,54.0,36.2,20.0,25.0,14.8,-99.9,82,49,19,0.00,40.00,19,6,22,0.00
2013-10-20,54.0,39.7,25.0,22.0,18.6,15.0,69,46,23,0.00,40.00,19,8,23,0.00
2013-10-21,56.0,43.3,21.0,25.0,21.6,16.0,80,45,25,0.00,40.00,14,4,20,0.00
2013-10-22,62.0,42.8,23.0,26.0,22.5,17.0,79,49,18,0.00,40.00,15,4,19,0.00
2013-10-23,64.0,46.2,23.0,26.0,21.4,15.0,78,42,14,0.00,40.00,18,3,20,0.00
2013-10-24,64.0,46.3,24.0,25.0,19.6,16.0,75,40,15,0.00,40.00,18,4,21,0.00
2013-10-25,61.0,52.4,31.0,24.0,20.1,15.0,67,30,16,0.00,40.00,15,7,19,0.00
2013-10-27,51.0,51.0,51.0,22.0,22.0,22.0,31,31,31,0.00,40.00,8,8,11,0.00
2013-10-28,54.0,42.7,37.0,32.0,10.9,-99.9,91,49,25,0.00,40.00,31,17,46,0.00
2013-10-29,37.0,32.7,28.0,30.0,27.6,25.0,92,81,62,0.00,40.00,6,2,11,0.00
2013-10-30,36.0,29.1,22.0,29.0,24.8,19.0,89,84,70,0.00,40.00,16,5,18,0.00
2013-10-31,40.0,37.3,33.0,29.0,26.4,24.0,75,64,52,0.00,40.00,20,12,23,0.00
2013-11-1,48.0,39.0,27.0,33.0,28.8,23.0,82,68,44,0.00,40.00,19,11,24,0.00
2013-11-2,61.0,43.5,21.0,26.0,5.8,-99.9,85,33,11,0.00,40.00,17,6,22,0.00
2013-11-7,53.0,38.7,23.0,27.0,22.2,18.0,82,56,29,0.00,40.00,16,6,30,0.00
2013-11-8,50.0,42.1,27.0,25.0,20.7,16.0,77,44,30,0.00,40.00,21,8,25,0.00
2013-11-9,55.0,29.2,28.0,21.0,-4.0,-99.9,70,44,23,0.00,40.00,2,1,4,0.00
2013-11-10,59.0,44.1,23.0,24.0,17.5,12.0,75,40,16,0.00,40.00,13,4,15,0.00
2013-11-11,61.0,45.1,24.0,22.0,15.9,12.0,74,36,14,0.00,40.00,16,4,17,0.00
2013-11-12,62.0,47.1,32.0,21.0,16.0,12.0,56,32,13,0.00,40.00,9,3,11,0.00
2013-11-13,55.0,45.2,28.0,25.0,20.0,18.0,68,40,22,0.00,40.00,19,6,24,0.00
2013-12-12,30.0,22.8,14.0,13.0,11.6,9.0,78,62,46,0.00,40.00,2,1,4,0.00
2013-12-13,29.0,24.9,19.0,15.0,13.8,13.0,78,62,51,0.00,40.00,14,10,21,0.00
2013-12-14,26.0,17.9,8.0,18.0,5.6,-99.9,86,77,67,0.00,40.00,13,6,14,0.00
2013-12-15,35.0,25.2,11.0,19.0,15.0,8.0,86,66,50,0.00,40.00,6,3,6,0.00
2013-12-16,44.0,34.7,19.0,17.0,13.7,11.0,69,43,28,0.00,40.00,13,5,18,0.00
2013-12-17,43.0,34.6,13.0,19.0,15.5,8.0,77,47,31,0.00,40.00,3,0,5,0.00
2013-12-18,47.0,39.4,34.0,28.0,19.8,17.0,67,46,30,0.00,40.00,12,2,20,0.00
2013-12-21,25.0,19.0,16.0,20.0,11.5,-99.9,85,80,79,0.00,40.00,9,3,15,0.00
2013-12-22,29.0,24.0,18.0,25.0,19.7,14.0,85,82,77,0.00,40.00,15,6,20,0.00
2013-12-23,34.0,30.4,27.0,27.0,25.3,23.0,86,81,76,0.00,40.00,13,6,14,0.00
2013-12-24,39.0,27.4,8.0,28.0,18.0,3.0,87,68,39,0.00,40.00,24,10,32,0.00
2013-12-25,31.0,12.6,2.0,11.0,3.6,-3.0,81,69,41,0.00,40.00,4,1,5,0.00
2013-12-26,39.0,27.5,5.0,13.0,8.9,0.0,80,48,28,0.00,40.00,3,1,4,0.00
2013-12-27,37.0,27.2,14.0,19.0,15.2,7.0,73,60,44,0.00,40.00,3,1,4,0.00
2013-12-28,31.0,20.0,19.0,18.0,-8.0,-99.9,79,53,57,0.00,40.00,12,6,18,0.00
2013-12-29,29.0,18.5,12.0,14.0,10.2,7.0,88,71,47,0.00,40.00,12,4,16,0.00
2013-12-30,34.0,21.9,10.0,12.0,9.0,6.0,81,59,35,0.00,40.00,9,3,12,0.00
2013-12-31,39.0,33.9,22.0,29.0,24.6,15.0,82,69,45,0.00,40.00,17,8,23,0.00
2014-1-1,36.0,30.5,14.0,22.0,19.0,10.0,83,62,49,0.00,40.00,27,10,31,0.00
2014-1-2,43.0,26.1,11.0,18.0,13.6,7.0,84,61,34,0.00,40.00,7,2,7,0.00